Location: Unspecified
(0.0000°N, 0.0000°E)
Time: 11:14:40
(UTC+00:00)

Vanguard 1 Rocket - Pass Details

Date: 20 November 2019
Orbit: 650 x 4226 km, 34.3° (Epoch: 13 December)

Event Time Altitude Azimuth Distance (km) Brightness Sun altitude
Rises 20:33:08 0° 226° (SW) 8,054 13.0 -38.9°
Reaches altitude 10° 20:39:51 10° 219° (SW) 6,599 12.3 -40.4°
Maximum altitude 20:57:30 44° 154° (SSE) 2,944 9.8 -44.3°
Enters shadow 20:57:39 44° 152° (SSE) 2,929 9.7 -44.4°
